When you browse on this site, cookies collect data to enhance your experience and personalize the content and advertising you see.
Visit our Privacy Policy to learn more. By continuing to use the site, you agree to this use of cookies and data.
  • In Denmark
  • List of Countries
  • For 7 days
  • Water Temperature
  • Satellite Maps
  • Weather Map
  • Weather Widgets
  • user-avatar
    Login

    Hourly Weather Yeghegnadzor

    Today, 22 February, Friday

    Time Temperature Precipitation Wind Pressure Humidity
    00:00 -2°C° 0 mm 1 mps 651 mmHg 60%
    01:00 -2°C° 0 mm 1 mps 651 mmHg 62%
    02:00 -3°C° 0 mm 1 mps 651 mmHg 64%
    03:00 -3°C° 0 mm 1 mps 651 mmHg 66%
    04:00 -3°C° 0 mm 1 mps 651 mmHg 67%
    05:00 -3°C° 0 mm 1 mps 651 mmHg 68%
    06:00 -3°C° 0 mm 1 mps 651 mmHg 69%
    07:00 -2°C° 0 mm 1 mps 651 mmHg 67%
    08:00 -1°C° 0 mm 1 mps 651 mmHg 65%
    09:00 0°C° 0 mm 1 mps 651 mmHg 63%
    10:00 +1°C° 0 mm 1 mps 651 mmHg 63%
    11:00 +2°C° 0 mm 1 mps 651 mmHg 62%
    12:00 +2°C° 0 mm 2 mps 651 mmHg 61%
    13:00 +2°C° 0 mm 2 mps 650 mmHg 60%
    14:00 +2°C° 0 mm 2 mps 650 mmHg 59%
    15:00 +3°C° 0 mm 2 mps 650 mmHg 58%
    16:00 +2°C° 0 mm 1 mps 650 mmHg 61%
    17:00 +1°C° 0 mm 1 mps 650 mmHg 64%
    18:00 0°C° 0 mm 1 mps 650 mmHg 67%
    19:00 -1°C° 0 mm 1 mps 650 mmHg 65%
    20:00 -3°C° 0 mm 2 mps 651 mmHg 63%
    21:00 -3°C° 0 mm 2 mps 651 mmHg 61%
    22:00 -4°C° 0 mm 2 mps 651 mmHg 62%
    23:00 -4°C° 0 mm 2 mps 652 mmHg 63%

    Tomorrow, 23 February, Saturday

    Time Temperature Precipitation Wind Pressure Humidity
    00:00 -4°C° 0 mm 2 mps 652 mmHg 64%
    01:00 -4°C° 0 mm 2 mps 652 mmHg 66%
    02:00 -4°C° 0 mm 2 mps 652 mmHg 68%
    03:00 -4°C° 0 mm 2 mps 652 mmHg 71%
    04:00 -5°C° 0 mm 2 mps 652 mmHg 71%
    05:00 -5°C° 0 mm 2 mps 652 mmHg 71%
    06:00 -5°C° 0 mm 2 mps 652 mmHg 71%
    07:00 -3°C° 0 mm 2 mps 652 mmHg 68%
    08:00 0°C° 0 mm 1 mps 653 mmHg 66%
    09:00 +1°C° 0 mm 1 mps 654 mmHg 64%
    10:00 +2°C° 0 mm 1 mps 653 mmHg 62%
    11:00 +3°C° 0 mm 1 mps 653 mmHg 61%
    12:00 +3°C° 0 mm 2 mps 653 mmHg 60%
    13:00 +3°C° 0 mm 2 mps 653 mmHg 60%
    14:00 +5°C° 0 mm 1 mps 653 mmHg 59%
    15:00 +5°C° 0 mm 1 mps 653 mmHg 59%
    16:00 +4°C° 0 mm 1 mps 652 mmHg 62%
    17:00 +2°C° 0 mm 1 mps 652 mmHg 65%
    18:00 +1°C° 0 mm 1 mps 652 mmHg 68%
    19:00 +1°C° 0 mm 1 mps 652 mmHg 67%
    20:00 +1°C° 0 mm 1 mps 653 mmHg 66%
    21:00 0°C° 0 mm 1 mps 653 mmHg 65%
    22:00 0°C° 0 mm 1 mps 653 mmHg 66%
    23:00 0°C° 0 mm 1 mps 653 mmHg 67%

    Day after tomorrow, 24 February, Sunday

    Time Temperature Precipitation Wind Pressure Humidity
    00:00 0°C° 0 mm 1 mps 653 mmHg 68%
    01:00 -1°C° 0 mm 1 mps 653 mmHg 70%
    02:00 -1°C° 0 mm 1 mps 653 mmHg 71%
    03:00 -1°C° 0 mm 1 mps 653 mmHg 73%
    04:00 -1°C° 0 mm 1 mps 653 mmHg 74%
    05:00 -1°C° 0 mm 1 mps 653 mmHg 75%
    06:00 -2°C° 0 mm 1 mps 653 mmHg 76%
    07:00 0°C° 0 mm 1 mps 653 mmHg 72%
    08:00 +1°C° 0 mm 1 mps 654 mmHg 69%
    09:00 +2°C° 0 mm 0 mps 655 mmHg 66%
    10:00 +4°C° 0 mm 1 mps 654 mmHg 64%
    11:00 +4°C° 0 mm 1 mps 654 mmHg 63%
    12:00 +4°C° 0 mm 2 mps 654 mmHg 62%
    13:00 +6°C° 0 mm 1 mps 654 mmHg 61%
    14:00 +6°C° 0 mm 1 mps 653 mmHg 60%
    15:00 +6°C° 0 mm 1 mps 653 mmHg 58%
    16:00 +5°C° 0 mm 1 mps 653 mmHg 62%
    17:00 +3°C° 0 mm 1 mps 653 mmHg 65%
    18:00 +1°C° 0 mm 0 mps 652 mmHg 68%
    19:00 +1°C° 0 mm 1 mps 653 mmHg 68%
    20:00 +1°C° 0 mm 1 mps 653 mmHg 67%
    21:00 +1°C° 0 mm 1 mps 654 mmHg 67%
    22:00 0°C° 0 mm 1 mps 654 mmHg 67%
    23:00 0°C° 0 mm 1 mps 654 mmHg 66%

    25 February, Monday

    Time Temperature Precipitation Wind Pressure Humidity
    00:00 0°C° 0 mm 1 mps 654 mmHg 66%
    01:00 0°C° 0 mm 1 mps 654 mmHg 66%
    02:00 -1°C° 0 mm 1 mps 654 mmHg 65%
    03:00 -1°C° 0 mm 1 mps 654 mmHg 64%
    04:00 -1°C° 0 mm 1 mps 654 mmHg 65%
    05:00 -1°C° 0 mm 1 mps 654 mmHg 65%
    06:00 -2°C° 0 mm 1 mps 653 mmHg 66%
    07:00 0°C° 0 mm 1 mps 654 mmHg 64%
    08:00 +1°C° 0 mm 1 mps 654 mmHg 63%
    09:00 +1°C° 0 mm 0 mps 655 mmHg 61%
    10:00 +3°C° 0 mm 1 mps 655 mmHg 61%
    11:00 +4°C° 0 mm 1 mps 654 mmHg 60%
    12:00 +4°C° 0 mm 2 mps 654 mmHg 60%
    13:00 +4°C° 0 mm 2 mps 653 mmHg 59%
    14:00 +4°C° 0 mm 2 mps 653 mmHg 58%
    15:00 +4°C° 0 mm 2 mps 652 mmHg 57%
    16:00 +4°C° 0 mm 1 mps 652 mmHg 60%
    17:00 +3°C° 0 mm 1 mps 652 mmHg 62%
    18:00 +1°C° 0 mm 1 mps 652 mmHg 65%
    19:00 +1°C° 0 mm 1 mps 652 mmHg 64%
    20:00 0°C° 0 mm 1 mps 652 mmHg 63%
    21:00 0°C° 0 mm 1 mps 652 mmHg 62%
    22:00 0°C° 0 mm 1 mps 652 mmHg 62%
    23:00 -1°C° 0 mm 1 mps 652 mmHg 62%

    26 February, Tuesday

    Time Temperature Precipitation Wind Pressure Humidity
    00:00 -1°C° 0 mm 1 mps 652 mmHg 62%
    01:00 -1°C° 0 mm 1 mps 652 mmHg 64%
    02:00 -2°C° 0 mm 1 mps 651 mmHg 66%
    03:00 -2°C° 0 mm 1 mps 651 mmHg 68%
    04:00 -2°C° 0 mm 1 mps 651 mmHg 70%
    05:00 -2°C° 0 mm 1 mps 650 mmHg 73%
    06:00 -3°C° 0 mm 1 mps 650 mmHg 75%
    07:00 -3°C° 0 mm 2 mps 650 mmHg 72%
    08:00 -2°C° 0 mm 2 mps 650 mmHg 68%
    09:00 -1°C° 0 mm 2 mps 650 mmHg 65%
    10:00 +1°C° 0 mm 2 mps 649 mmHg 62%
    11:00 +2°C° 0 mm 2 mps 649 mmHg 60%
    12:00 +3°C° 0 mm 2 mps 648 mmHg 57%
    13:00 +3°C° 0 mm 2 mps 647 mmHg 56%
    14:00 +4°C° 0 mm 2 mps 646 mmHg 54%
    15:00 +4°C° 0 mm 2 mps 645 mmHg 53%
    16:00 +3°C° 0 mm 2 mps 644 mmHg 56%
    17:00 +2°C° 0 mm 2 mps 644 mmHg 60%
    18:00 -1°C° 0 mm 2 mps 643 mmHg 64%
    19:00 -1°C° 0 mm 2 mps 642 mmHg 66%
    20:00 -1°C° 0 mm 2 mps 642 mmHg 68%
    21:00 -1°C° 0 mm 3 mps 642 mmHg 69%
    22:00 +1°C° 0.2 mm 2 mps 641 mmHg 73%
    23:00 +1°C° 0.2 mm 2 mps 641 mmHg 76%

    27 February, Wednesday

    Time Temperature Precipitation Wind Pressure Humidity
    00:00 +1°C° 0.2 mm 2 mps 640 mmHg 80%
    01:00 +1°C° 0.6 mm 2 mps 639 mmHg 83%
    02:00 +1°C° 0.6 mm 2 mps 639 mmHg 87%
    03:00 +1°C° 0.6 mm 2 mps 638 mmHg 90%
    04:00 +2°C° 0.3 mm 1 mps 638 mmHg 90%
    05:00 +2°C° 0.3 mm 1 mps 637 mmHg 90%
    06:00 +3°C° 0.3 mm 1 mps 637 mmHg 90%
    07:00 +3°C° 0.3 mm 1 mps 637 mmHg 88%
    08:00 +3°C° 0.3 mm 1 mps 637 mmHg 86%
    09:00 +4°C° 0.3 mm 1 mps 637 mmHg 84%
    10:00 +4°C° 0.3 mm 1 mps 637 mmHg 82%
    11:00 +3°C° 0.3 mm 2 mps 637 mmHg 79%
    12:00 +4°C° 0.3 mm 2 mps 637 mmHg 76%
    13:00 +4°C° 0.1 mm 2 mps 637 mmHg 74%
    14:00 +4°C° 0.1 mm 2 mps 637 mmHg 72%
    15:00 +3°C° 0.1 mm 3 mps 637 mmHg 69%
    16:00 +4°C° 0.1 mm 2 mps 637 mmHg 71%
    17:00 +3°C° 0.1 mm 2 mps 637 mmHg 72%
    18:00 +3°C° 0.1 mm 1 mps 637 mmHg 74%
    19:00 +2°C° 0.1 mm 1 mps 638 mmHg 74%
    20:00 +2°C° 0.1 mm 1 mps 638 mmHg 75%
    21:00 +2°C° 0.1 mm 1 mps 639 mmHg 75%
    22:00 +1°C° 0.2 mm 1 mps 639 mmHg 76%
    23:00 +1°C° 0.2 mm 1 mps 639 mmHg 76%
    Show more